Location: Unspecified
(0.0000°N, 0.0000°E)
Time: 22:22:43
(UTC+00:00)

ACS3 Solar Sail - Pass Details

Date: 03 December 2025
Orbit: 888 x 1002 km, 97.3° (Epoch: 08 December)

Event Time Altitude Azimuth Distance (km) Brightness Sun altitude
Exits shadow 02:45:12 11° 184° (S) 2,691 4.3 -41.9°
Drops below altitude 10° 02:45:23 10° 184° (S) 2,764 4.4 -41.9°
Sets 02:47:55 0° 186° (S) 3,719 5.1 -41.3°
